Weather History for Aswan, Egypt

Change the Weather History Date:

Monday, December 2, 2013

  Actual Average Record
Temperature  
Mean Temperature 79 °F -  
Max Temperature 93 °F 73 °F 93 °F (2005)
Min Temperature 65 °F 51 °F 50 °F (1999)
Cooling Degree Days 14    
Growing Degree Days 29 (Base 50)    
Moisture  
Dew Point 52 °F    
Average Humidity 36    
Maximum Humidity 60    
Minimum Humidity 17    
Precipitation  
Precipitation 0.00 in 0.00 in - ()
Sea Level Pressure  
Sea Level Pressure 29.98 in    
Wind  
Wind Speed 3 mph ()    
Max Wind Speed 7 mph    
Max Gust Speed -    
Visibility 6.0 miles    
Events      
Averages and records for this station are not official NWS values.
T = Trace of Precipitation, MM = Missing Value Source: Averaged Metar Reports

Daily Weather History Graph

Daily Weather History Graph

Search for Another Location

Airport:

Trip Planner

Search our weather history database for the weather conditions in past years. The results will help you decide how hot, cold, wet, or windy it might be!

Date:

Astronomy

Dec. 02, 2013 Rise Set
Actual Time 6:15 AM EET 5:00 PM EET
Civil Twilight 5:50 AM EET 5:25 PM EET
Nautical Twilight 5:22 AM EET 5:53 PM EET
Astronomical Twilight 4:55 AM EET 6:20 PM EET
Moon 5:23 AM EET (12/2) 4:40 PM EET (12/2)
Length of Visible Light 11h 34m
Length of Day
10h 45m
Waning Crescent, 1% of the Moon is Illuminated
Dec 2
Waning Crescent
Dec 3
New
Dec 9
First Quarter
Dec 17
Full
Dec 25
Last Quarter

Hourly Weather History & Observations

Time (EET) Temp. Heat Index Dew Point Humidity Pressure Visibility Wind Dir Wind Speed Gust Speed Precip Events Conditions
12:00 AM 77.0 °F - 57.2 °F 50% 30.01 in - East 2.3 mph - N/A   Clear
1:00 AM 75.2 °F - 51.8 °F 44% 30.01 in - ENE 2.3 mph - N/A   Clear
2:00 AM 75 °F - 47 °F 26% 29.98 in 6 mi NNE 4.6 mph - -  
2:00 AM 75.2 °F - 46.4 °F 36% 30.01 in - NNE 4.6 mph - N/A   Clear
4:00 AM 69.8 °F - 48.2 °F 46% 30.01 in - North 3.5 mph - N/A   Clear
5:00 AM 66 °F - 49 °F 43% 29.98 in 6 mi North 1.2 mph - -  
6:00 AM 66.2 °F - 51.8 °F 60% 30.01 in - North 4.6 mph - N/A   Clear
8:00 AM 70 °F - 57 °F 54% 30.04 in 6 mi North 5.8 mph - -  
10:00 AM 78.8 °F - 55.4 °F 44% 30.06 in - North 6.9 mph - N/A   Clear
11:00 AM 81 °F - 55 °F 31% 30.01 in 6 mi NNE 4.6 mph - -  
11:00 AM 80.6 °F 80.5 °F 55.4 °F 42% 30.04 in - NNE 4.6 mph - N/A   Clear
12:00 PM 86.0 °F 84.2 °F 53.6 °F 33% 30.01 in - NE 2.3 mph - N/A   Clear
1:00 PM 87.8 °F 86.1 °F 55.4 °F 33% 29.95 in - NNE 2.3 mph - N/A   Clear
2:00 PM 92 °F - 54 °F 18% 29.90 in 6 mi ESE 4.6 mph - -  
2:00 PM 91.4 °F 89.1 °F 53.6 °F 28% 29.95 in - ESE 4.6 mph - N/A   Clear
3:00 PM 93.2 °F - 50.0 °F 23% 29.92 in - SW 2.3 mph - N/A   Clear
4:00 PM 93.2 °F - 50.0 °F 23% 29.92 in - NNW 2.3 mph - N/A   Clear
5:00 PM 89 °F - 51 °F 17% 29.89 in 6 mi NW 2.3 mph - -  
5:00 PM 89.6 °F - 50.0 °F 26% 29.92 in - NW 2.3 mph - N/A   Clear
6:00 PM 86.0 °F - 50.0 °F 29% 29.95 in - NNW 4.6 mph - N/A   Clear
7:00 PM 82.4 °F - 51.8 °F 35% 29.95 in - NW 5.8 mph - N/A   Clear
8:00 PM 81 °F - 51 °F 24% 29.95 in 6 mi NW 4.6 mph - -  
8:00 PM 80.6 °F - 50.0 °F 34% 29.98 in - NW 4.6 mph - N/A   Clear
9:00 PM 78.8 °F - 51.8 °F 39% 29.98 in - NNW 4.6 mph - N/A   Clear
10:00 PM 77.0 °F - 51.8 °F 41% 29.98 in - North 4.6 mph - N/A   Clear
11:00 PM 74 °F - 52 °F 35% 29.97 in 6 mi NNE 2.3 mph - -  
11:00 PM 73.4 °F - 51.8 °F 47% 29.98 in - NNE 2.3 mph - N/A   Clear